Regional Weather Roundup
Issued by NWS

Home | Current Version | Previous Version | Text Only | Print | Product List | Glossary Off
Versions: 1 2 3 4 5 6 7 8 9 10 11 12 13 14 15 16 17 18 19 20 21 22 23 24 25 26 27 28 29 30 31 32 33 34 35 36 37 38 39 40 41 42 43 44 45 46 47 48 49 50

640
ASUS43 KDTX 260210
RWRMI
MICHIGAN HOURLY REGIONAL WEATHER ROUNDUP
NATIONAL WEATHER SERVICE DETROIT/PONTIAC MI
1000 PM EDT SAT MAR 25 2017

NOTE: "FAIR" INDICATES FEW OR NO CLOUDS BELOW 12,000 FEET WITH NO
SIGNIFICANT WEATHER AND/OR OBSTRUCTION TO VISIBILITY.

MIZ047>049-052>055-059>063-066>070-074>076-081>083-260300-
SOUTHEAST LOWER MICHIGAN

CITY           SKY/WX    TMP DP  RH WIND       PRES   REMARKS
ADRIAN         CLOUDY    41  37  86 E13       30.14S
ALMA           CLOUDY    39  38  98 E12       30.18S WCI  32
ANN ARBOR      CLOUDY    42  38  85 E14G20    30.15F
BAD AXE        CLOUDY    37  35  93 E8G17     30.24F WCI  30
CARO           CLOUDY    37  36  94 E10       30.21R WCI  30
DETROIT CITY   CLOUDY    40  36  86 E16G23    30.20S WCI  31
DETROIT        CLOUDY    41  36  82 E12       30.18F
FLINT          CLOUDY    41  38  89 E10       30.18F
GROSSE ILE     CLOUDY    39  35  84 E15G21    30.18S WCI  31
HILLSDALE      CLOUDY    41  37  87 E17G23    30.09S
HOWELL         CLOUDY    41  38  90 E10       30.15S

CITY           SKY/WX    TMP DP  RH WIND       PRES   REMARKS
JACKSON        CLOUDY    43  38  82 E15       30.11S
LAMBERTVILLE   CLOUDY    39  35  86 E15G22    30.15S WCI  30
LANSING        CLOUDY    42  40  92 E9        30.14F FOG
LAPEER         CLOUDY    38  37  96 E7        30.20S WCI  33
MASON          CLOUDY    43  41  93 E9G17     30.13F
MONROE         CLOUDY    40  37  89 E14G21    30.16F WCI  32
MT. CLEMENS    CLOUDY    39  39  99 E9        30.18F WCI  33
PONTIAC        CLOUDY    39  36  89 E8        30.17S WCI  33
PORT HOPE        N/A     35  34  96 E12       30.25F WCI  27
PORT HURON     PTCLDY    37  34  87 E9        30.22F WCI  31
TRI CITIES     CLOUDY    39  37  92 E13       30.21S WCI  31
MIDLAND        CLOUDY    36  34  94 NE13G18   30.21F WCI  27
TROY           CLOUDY    40  37  86 E10       30.20F WCI  34
SAGINAW HB     CLOUDY    37  36  93 E10       30.21R WCI  30
$$
MIZ043>046-050>051-056>058-064>065-071>073-077>080-260300-
SOUTHWEST LOWER MICHIGAN

CITY           SKY/WX    TMP DP  RH WIND       PRES   REMARKS
BATTLE CREEK   LGT RAIN  45  43  93 E7        30.10S
BENTON HARBOR  CLOUDY    49  45  86 E15       30.02R
BIG RAPIDS     MIX PCPN  36  33  92 E9        30.16R WCI  29
COLDWATER      CLOUDY    46  42  86 E9        30.08R
FREMONT        CLOUDY    38  37  96 E9G17     30.12F WCI  31
HOLLAND        RAIN      43  41  93 E14       30.06F FOG
GRAND RAPIDS   LGT RAIN  41  38  89 E16       30.11S
IONIA          MIX PCPN  39  38  97 NE14      30.13F WCI  31
KALAMAZOO      LGT RAIN  46  42  86 E8        30.08F FOG
LUDINGTON      LGT RAIN  38  37  95 E14G21    30.11S WCI  30
MARSHALL       CLOUDY    44  42  94 E10       30.09S
MOUNT PLEASANT CLOUDY    36  34  95 E10G16    30.19R WCI  28
MUSKEGON       CLOUDY    42  39  89 E16       30.09R
SOUTH HAVEN    CLOUDY    46  45  95 E14G22    30.03F
$$
MIZ016>042-260300-
NORTHERN LOWER MICHIGAN

CITY           SKY/WX    TMP DP  RH WIND       PRES   REMARKS
ALPENA         CLOUDY    33  29  85 E10       30.32F WCI  25
BEAVER ISLAND  CLOUDY    33  27  77 E17G25    30.25F WCI  22
BELLAIRE       CLOUDY    35  30  83 E7        30.23F WCI  29
CADILLAC       LGT RAIN  34  33  96 E13G20    30.14F WCI  25
CHARLEVOIX     LGT RAIN  35  29  80 E16G23    30.26F WCI  25
FRANKFORT      DRIZZLE   37  32  82 E9        30.15S WCI  31
GAYLORD        MIX PCPN  32  28  85 E8        30.23S WCI  25
GRAYLING       CLOUDY    32  30  93 E13G20    30.24S WCI  22
HARBOR SPRINGS CLOUDY    33  27  81 E16G24    30.26F WCI  22
HOUGHTON LAKE  LGT RAIN  33  31  92 E13       30.22R WCI  24
MANISTEE       LGT RAIN  38  36  92 E13G20    30.13R WCI  30
OSCODA         CLOUDY    35  33  93 NE14      30.28F WCI  26
PELLSTON       CLOUDY    33  24  69 E12G22    30.29F WCI  24
ROGERS CITY    CLOUDY    33  26  75 E15G22      N/A  WCI  23
TRAVERSE CITY  CLOUDY    37  31  78 E16       30.19S WCI  28
$$
MIZ007>008-015-260300-
EASTERN UPPER MICHIGAN

CITY           SKY/WX    TMP DP  RH WIND       PRES   REMARKS
KINROSS        CLOUDY    33  13  43 SE14      30.33S WCI  23
MACKINAC ISLAN CLOUDY    32  24  72 E15G28    30.30F WCI  22
NEWBERRY       CLOUDY    32  23  69 SE8       30.29S WCI  25
S. S. MARIE    PTCLDY    32  16  51 E6        30.34S WCI  26
MUNISING         N/A     36  25  64 SE7       30.25S WCI  30
$$
MIZ004>006-011>014-085-260300-
CENTRAL UPPER MICHIGAN

CITY           SKY/WX    TMP DP  RH WIND       PRES   REMARKS
MANISTIQUE     CLOUDY    32  25  74 E16G25    30.26S WCI  21
ESCANABA       LGT RAIN  34  29  82 E12       30.24R WCI  25
MENOMINEE        N/A    N/A N/A N/A MISG        N/A
SAWYER-GWINN   CLOUDY    32  28  86 E3        30.22F
$$
MIZ001>003-009>011-084-260300-
WESTERN UPPER MICHIGAN

CITY           SKY/WX    TMP DP  RH WIND       PRES   REMARKS
IRON MOUNTAIN  LGT RAIN  33  29  85 E5        30.19S WCI  29
HOUGHTON       CLOUDY    31  27  85 E12       30.21F WCI  22
COPPER HARBOR    N/A     31  26  82 CALM      30.26F
IRONWOOD       MOCLDY    34  29  82 NE3       30.15S
$$

ABBREVIATIONS USED IN REMARKS
   TC - TEMPERATURE IN CELSIUS
  WCI - WIND CHILL INDEX
   HX - HEAT INDEX
  VSB - VISIBILITY





USA.gov is the U.S. government's official web portal to all federal, state and local government web resources and services.